TimeEDT,TemperatureF,Dew PointF,Humidity,Sea Level PressureIn,VisibilityMPH,Wind Direction,Wind SpeedMPH,Gust SpeedMPH,PrecipitationIn,Events,Conditions,WindDirDegrees,DateUTC
12:15 AM,62.6,57.2,82,30.09,10.0,ENE,5.8,-,N/A,,Overcast,60,2013-10-16 04:15:00
12:35 AM,62.6,57.2,82,30.09,10.0,NE,4.6,-,N/A,,Overcast,50,2013-10-16 04:35:00
12:55 AM,62.6,57.2,82,30.09,10.0,ENE,5.8,-,N/A,,Overcast,60,2013-10-16 04:55:00
1:15 AM,62.6,57.2,82,30.09,10.0,ENE,5.8,-,N/A,,Overcast,70,2013-10-16 05:15:00
1:35 AM,62.6,57.2,82,30.08,10.0,ENE,5.8,-,N/A,,Overcast,70,2013-10-16 05:35:00
1:55 AM,62.6,57.2,82,30.07,10.0,East,5.8,-,N/A,,Overcast,80,2013-10-16 05:55:00
2:15 AM,62.6,57.2,82,30.07,10.0,ENE,4.6,-,N/A,,Overcast,60,2013-10-16 06:15:00
2:35 AM,62.6,57.2,82,30.07,10.0,NNE,4.6,-,N/A,,Overcast,20,2013-10-16 06:35:00
2:55 AM,62.6,57.2,82,30.06,10.0,NNE,4.6,-,N/A,,Overcast,30,2013-10-16 06:55:00
3:15 AM,62.6,57.2,82,30.06,10.0,North,4.6,-,N/A,,Overcast,360,2013-10-16 07:15:00
3:35 AM,60.8,57.2,88,30.06,10.0,Calm,Calm,-,N/A,,Overcast,0,2013-10-16 07:35:00
3:55 AM,60.8,55.4,82,30.07,10.0,North,4.6,-,N/A,,Overcast,350,2013-10-16 07:55:00
4:15 AM,59.0,55.4,88,30.07,10.0,North,3.5,-,N/A,,Overcast,360,2013-10-16 08:15:00
4:35 AM,59.0,55.4,88,30.07,10.0,North,3.5,-,N/A,,Overcast,350,2013-10-16 08:35:00
4:55 AM,59.0,55.4,88,30.07,10.0,North,5.8,-,N/A,,Overcast,10,2013-10-16 08:55:00
5:15 AM,59.0,55.4,88,30.07,10.0,North,3.5,-,N/A,,Mostly Cloudy,350,2013-10-16 09:15:00
5:35 AM,57.2,55.4,94,30.07,8.0,North,4.6,-,N/A,,Partly Cloudy,360,2013-10-16 09:35:00
5:55 AM,57.2,53.6,88,30.06,3.0,NNE,6.9,-,N/A,,Mostly Cloudy,20,2013-10-16 09:55:00
6:15 AM,57.2,55.4,94,30.06,0.5,North,5.8,-,N/A,,Overcast,10,2013-10-16 10:15:00
6:35 AM,57.2,55.4,94,30.06,0.5,NNE,4.6,-,N/A,,Overcast,20,2013-10-16 10:35:00
6:55 AM,57.2,55.4,94,30.06,0.5,NE,4.6,-,N/A,,Overcast,40,2013-10-16 10:55:00
7:15 AM,57.2,55.4,94,30.06,0.8,North,3.5,-,N/A,,Overcast,10,2013-10-16 11:15:00
7:35 AM,57.2,55.4,94,30.06,1.0,Calm,Calm,-,N/A,,Overcast,0,2013-10-16 11:35:00
7:55 AM,57.2,55.4,94,30.06,1.2,Calm,Calm,-,N/A,,Overcast,0,2013-10-16 11:55:00
8:15 PM,62.6,57.2,82,29.97,10.0,ESE,3.5,-,N/A,,Overcast,120,2013-10-17 00:15:00
8:35 PM,62.6,57.2,82,29.97,10.0,East,5.8,-,N/A,,Overcast,100,2013-10-17 00:35:00
8:55 PM,62.6,59.0,88,29.98,10.0,ESE,3.5,-,N/A,,Overcast,120,2013-10-17 00:55:00
9:15 PM,62.6,57.2,82,29.98,10.0,SE,5.8,-,N/A,,Mostly Cloudy,130,2013-10-17 01:15:00
9:35 PM,62.6,57.2,82,29.97,10.0,Calm,Calm,-,N/A,,Partly Cloudy,0,2013-10-17 01:35:00
9:55 PM,62.6,57.2,82,29.98,10.0,Calm,Calm,-,N/A,,Clear,0,2013-10-17 01:55:00
10:15 PM,62.6,57.2,82,29.98,10.0,Calm,Calm,-,N/A,,Mostly Cloudy,0,2013-10-17 02:15:00
10:35 PM,62.6,57.2,82,29.97,10.0,SSE,4.6,-,N/A,,Overcast,150,2013-10-17 02:35:00
10:55 PM,62.6,59.0,88,29.98,10.0,South,3.5,-,N/A,,Overcast,180,2013-10-17 02:55:00
11:15 PM,62.6,59.0,88,29.97,10.0,SSE,4.6,-,N/A,,Overcast,160,2013-10-17 03:15:00
11:35 PM,62.6,59.0,88,29.96,10.0,South,3.5,-,N/A,,Overcast,170,2013-10-17 03:35:00
11:55 PM,62.6,59.0,88,29.95,10.0,SSE,4.6,-,N/A,,Overcast,150,2013-10-17 03:55:00